When you browse on this site, cookies collect data to enhance your experience and personalize the content and advertising you see.
Visit our Privacy Policy to learn more. By continuing to use the site, you agree to this use of cookies and data.
  • In Romania
  • List of Countries
  • For 7 days
  • Water Temperature
  • Satellite Maps
  • Weather Map
  • Weather Widgets
  • user-avatar
    Login

    Hourly Weather Gurgaon

    Today, 16 July, Tuesday

    Time Temperature Precipitation Wind Pressure Humidity
    00:00 +35°C° 1.3 mm 4 mps 728 mmHg 60%
    01:00 +34°C° 1.3 mm 4 mps 728 mmHg 62%
    02:00 +33°C° 1.3 mm 4 mps 727 mmHg 65%
    03:00 +33°C° 0.3 mm 4 mps 727 mmHg 65%
    04:00 +33°C° 0.3 mm 3 mps 728 mmHg 65%
    05:00 +30°C° 0 mm 4 mps 728 mmHg 69%
    06:00 +30°C° 2.3 mm 3 mps 729 mmHg 69%
    07:00 +31°C° 2.3 mm 3 mps 730 mmHg 69%
    08:00 +31°C° 2.3 mm 2 mps 730 mmHg 70%
    09:00 +32°C° 0.9 mm 2 mps 730 mmHg 64%
    10:00 +34°C° 0.9 mm 1 mps 731 mmHg 58%
    11:00 +36°C° 0 mm 1 mps 732 mmHg 49%
    12:00 +36°C° 1 mm 1 mps 731 mmHg 48%
    13:00 +36°C° 1 mm 1 mps 731 mmHg 47%
    14:00 +37°C° 1 mm 1 mps 730 mmHg 46%
    15:00 +37°C° 0.2 mm 1 mps 730 mmHg 46%
    16:00 +37°C° 0.2 mm 1 mps 729 mmHg 45%
    17:00 +37°C° 0.2 mm 1 mps 729 mmHg 45%
    18:00 +36°C° 0.2 mm 1 mps 729 mmHg 48%
    19:00 +36°C° 0.2 mm 2 mps 729 mmHg 52%
    20:00 +35°C° 0.2 mm 2 mps 729 mmHg 56%
    21:00 +34°C° 2.1 mm 2 mps 730 mmHg 60%
    22:00 +32°C° 2.1 mm 2 mps 730 mmHg 65%
    23:00 +31°C° 2.1 mm 3 mps 730 mmHg 69%

    Tomorrow, 17 July, Wednesday

    Time Temperature Precipitation Wind Pressure Humidity
    00:00 +31°C° 0.4 mm 2 mps 730 mmHg 68%
    01:00 +32°C° 0.4 mm 2 mps 730 mmHg 66%
    02:00 +32°C° 0.4 mm 2 mps 729 mmHg 64%
    03:00 +32°C° 2 mm 2 mps 730 mmHg 66%
    04:00 +31°C° 2 mm 2 mps 730 mmHg 68%
    05:00 +31°C° 2 mm 2 mps 730 mmHg 70%
    06:00 +32°C° 1.3 mm 2 mps 730 mmHg 67%
    07:00 +32°C° 1.3 mm 2 mps 731 mmHg 64%
    08:00 +34°C° 1.3 mm 2 mps 731 mmHg 61%
    09:00 +35°C° 0.4 mm 3 mps 731 mmHg 57%
    10:00 +36°C° 0.4 mm 3 mps 731 mmHg 52%
    11:00 +37°C° 0.4 mm 4 mps 731 mmHg 47%
    12:00 +37°C° 0 mm 4 mps 731 mmHg 47%
    13:00 +37°C° 0 mm 4 mps 730 mmHg 47%
    14:00 +37°C° 0 mm 3 mps 730 mmHg 47%
    15:00 +37°C° 0 mm 3 mps 730 mmHg 48%
    16:00 +37°C° 0 mm 3 mps 729 mmHg 49%
    17:00 +36°C° 0 mm 3 mps 729 mmHg 50%
    18:00 +36°C° 0.1 mm 3 mps 729 mmHg 52%
    19:00 +35°C° 0.1 mm 3 mps 729 mmHg 54%
    20:00 +34°C° 0.1 mm 3 mps 730 mmHg 56%
    21:00 +34°C° 0.1 mm 2 mps 730 mmHg 58%
    22:00 +32°C° 0.1 mm 2 mps 730 mmHg 60%
    23:00 +32°C° 0.1 mm 2 mps 730 mmHg 61%

    Day after tomorrow, 18 July, Thursday

    Time Temperature Precipitation Wind Pressure Humidity
    00:00 +32°C° 0.1 mm 2 mps 730 mmHg 61%
    01:00 +32°C° 0.1 mm 1 mps 729 mmHg 62%
    02:00 +32°C° 0.1 mm 1 mps 729 mmHg 62%
    03:00 +32°C° 0.2 mm 1 mps 729 mmHg 62%
    04:00 +32°C° 0.2 mm 1 mps 729 mmHg 62%
    05:00 +32°C° 0.2 mm 1 mps 730 mmHg 63%
    06:00 +32°C° 0.2 mm 2 mps 730 mmHg 61%
    07:00 +34°C° 0.2 mm 2 mps 730 mmHg 59%
    08:00 +34°C° 0.2 mm 3 mps 731 mmHg 57%
    09:00 +35°C° 0 mm 3 mps 731 mmHg 55%
    10:00 +36°C° 0 mm 2 mps 731 mmHg 53%
    11:00 +36°C° 0 mm 2 mps 731 mmHg 51%
    12:00 +37°C° 0 mm 2 mps 730 mmHg 48%
    13:00 +38°C° 0 mm 2 mps 730 mmHg 46%
    14:00 +38°C° 0 mm 2 mps 729 mmHg 43%
    15:00 +37°C° 1.1 mm 3 mps 729 mmHg 50%
    16:00 +36°C° 1.1 mm 5 mps 728 mmHg 56%
    17:00 +34°C° 1.1 mm 7 mps 728 mmHg 62%
    18:00 +34°C° 1.5 mm 5 mps 728 mmHg 62%
    19:00 +33°C° 1.5 mm 4 mps 729 mmHg 62%
    20:00 +33°C° 1.5 mm 3 mps 729 mmHg 62%
    21:00 +31°C° 0.4 mm 2 mps 729 mmHg 63%
    22:00 +31°C° 0.4 mm 2 mps 729 mmHg 65%
    23:00 +31°C° 0.4 mm 2 mps 729 mmHg 67%

    19 July, Friday

    Time Temperature Precipitation Wind Pressure Humidity
    00:00 +31°C° 0.1 mm 2 mps 729 mmHg 66%
    01:00 +31°C° 0.1 mm 1 mps 729 mmHg 65%
    02:00 +30°C° 0.1 mm 0 mps 728 mmHg 65%
    03:00 +29°C° 0.9 mm 0 mps 729 mmHg 65%
    04:00 +29°C° 0.9 mm 0 mps 729 mmHg 66%
    05:00 +29°C° 0.9 mm 0 mps 729 mmHg 67%
    06:00 +32°C° 0.4 mm 1 mps 730 mmHg 62%
    07:00 +33°C° 0.4 mm 1 mps 730 mmHg 58%
    08:00 +35°C° 0.4 mm 2 mps 731 mmHg 54%
    09:00 +36°C° 0 mm 2 mps 731 mmHg 50%
    10:00 +37°C° 0 mm 3 mps 731 mmHg 47%
    11:00 +38°C° 0 mm 4 mps 731 mmHg 44%
    12:00 +39°C° 0 mm 3 mps 731 mmHg 41%
    13:00 +40°C° 0 mm 3 mps 730 mmHg 39%
    14:00 +42°C° 0 mm 3 mps 730 mmHg 36%
    15:00 +41°C° 0 mm 2 mps 729 mmHg 36%
    16:00 +41°C° 0 mm 2 mps 729 mmHg 35%
    17:00 +41°C° 0 mm 2 mps 728 mmHg 35%
    18:00 +40°C° 0.1 mm 2 mps 729 mmHg 40%
    19:00 +38°C° 0.1 mm 2 mps 729 mmHg 44%
    20:00 +37°C° 0.1 mm 2 mps 729 mmHg 49%
    21:00 +37°C° 0.4 mm 2 mps 729 mmHg 51%
    22:00 +36°C° 0.4 mm 2 mps 730 mmHg 54%
    23:00 +35°C° 0.4 mm 2 mps 730 mmHg 56%

    20 July, Saturday

    Time Temperature Precipitation Wind Pressure Humidity
    00:00 +34°C° 0.1 mm 1 mps 730 mmHg 57%
    01:00 +34°C° 0.1 mm 1 mps 729 mmHg 57%
    02:00 +34°C° 0.1 mm 1 mps 729 mmHg 57%
    03:00 +34°C° 0 mm 1 mps 729 mmHg 58%
    04:00 +33°C° 0 mm 1 mps 729 mmHg 59%
    05:00 +33°C° 0 mm 1 mps 730 mmHg 59%
    06:00 +34°C° 0 mm 1 mps 730 mmHg 56%
    07:00 +35°C° 0 mm 1 mps 730 mmHg 53%
    08:00 +36°C° 0 mm 1 mps 731 mmHg 50%
    09:00 +38°C° 0 mm 2 mps 731 mmHg 47%
    10:00 +39°C° 0 mm 2 mps 731 mmHg 43%
    11:00 +40°C° 0 mm 3 mps 731 mmHg 39%
    12:00 +42°C° 0 mm 4 mps 731 mmHg 37%
    13:00 +43°C° 0 mm 4 mps 730 mmHg 35%
    14:00 +43°C° 0 mm 5 mps 729 mmHg 32%
    15:00 +45°C° 0 mm 5 mps 729 mmHg 32%
    16:00 +44°C° 0 mm 4 mps 729 mmHg 31%
    17:00 +44°C° 0 mm 4 mps 728 mmHg 31%
    18:00 +43°C° 0.1 mm 4 mps 728 mmHg 33%
    19:00 +42°C° 0.1 mm 3 mps 728 mmHg 36%
    20:00 +40°C° 0.1 mm 3 mps 728 mmHg 38%
    21:00 +39°C° 0 mm 2 mps 728 mmHg 40%
    22:00 +39°C° 0 mm 2 mps 728 mmHg 43%
    23:00 +37°C° 0 mm 1 mps 728 mmHg 45%

    21 July, Sunday

    Time Temperature Precipitation Wind Pressure Humidity
    00:00 +37°C° 0 mm 1 mps 728 mmHg 46%
    01:00 +37°C° 0 mm 1 mps 728 mmHg 46%
    02:00 +34°C° 0 mm 0 mps 728 mmHg 47%
    03:00 +36°C° 0 mm 1 mps 728 mmHg 48%
    04:00 +36°C° 0 mm 1 mps 728 mmHg 48%
    05:00 +36°C° 0 mm 1 mps 728 mmHg 49%
    06:00 +38°C° 0 mm 2 mps 728 mmHg 44%
    07:00 +40°C° 0 mm 4 mps 728 mmHg 40%
    08:00 +41°C° 0 mm 5 mps 729 mmHg 35%
    09:00 +42°C° 0 mm 6 mps 729 mmHg 32%
    10:00 +44°C° 0 mm 6 mps 729 mmHg 30%
    11:00 +45°C° 0 mm 6 mps 729 mmHg 27%
    12:00 +46°C° 0 mm 6 mps 728 mmHg 26%
    13:00 +47°C° 0 mm 6 mps 728 mmHg 25%
    14:00 +47°C° 0 mm 5 mps 727 mmHg 24%
    15:00 +47°C° 0 mm 5 mps 727 mmHg 24%
    16:00 +46°C° 0 mm 5 mps 726 mmHg 25%
    17:00 +46°C° 0 mm 5 mps 726 mmHg 26%
    18:00 +45°C° 0 mm 5 mps 726 mmHg 27%
    19:00 +44°C° 0 mm 4 mps 726 mmHg 28%
    20:00 +43°C° 0 mm 4 mps 726 mmHg 29%
    21:00 +42°C° 0 mm 3 mps 726 mmHg 30%
    22:00 +42°C° 0 mm 3 mps 727 mmHg 31%
    23:00 +40°C° 0 mm 3 mps 727 mmHg 31%
    Show more